Regional Weather Roundup
Issued by NWS Green Bay, WI

Home | Current Version | Previous Version | Graphics & Text | Print | Product List | Glossary Off
Versions: 1 2 3 4 5 6 7 8 9 10 11 12 13 14 15 16 17 18 19 20 21 22 23 24 25 26 27 28 29 30 31 32 33 34 35 36 37 38 39 40 41 42 43 44 45 46 47 48 49 50

000
ASUS43 KGRB 210559
RWRGRB

NORTH-CENTRAL AND NORTHEAST WISCONSIN REGIONAL WEATHER ROUNDUP
NATIONAL WEATHER SERVICE GREEN BAY WI
100 AM CDT MON APR 21 2014

WIZ005-009-010>012-018-019-210700-
NORTH CENTRAL WISCONSIN

CITY           SKY/WX    TMP DP  RH WIND       PRES   REMARKS
IRONWOOD         N/A     34  27  75 CALM      29.94F
MANITOWISH WTR NOT AVBL
ARBOR VITAE    NOT AVBL
EAGLE RIVER    NOT AVBL
LAND O LAKES   NOT AVBL
RHINELANDER    FOG       41  41 100 NE5       29.97F VSB 1/4
PHILLIPS       NOT AVBL
ANTIGO         NOT AVBL
TOMAHAWK       NOT AVBL
MERRILL        NOT AVBL
$$

WIZ013-073-210700-
NORTHEAST WISCONSIN

CITY           SKY/WX    TMP DP  RH WIND       PRES   REMARKS
IRON MOUNTAIN  FOG       43  42  97 CALM      29.98S VSB<1/4
MARINETTE      MOCLDY    48  46  93 CALM      29.97F
$$

WIZ017-030-035>037-045-210700-
CENTRAL WISCONSIN

CITY           SKY/WX    TMP DP  RH WIND       PRES   REMARKS
MEDFORD        NOT AVBL
WAUSAU         CLOUDY    51  50  96 CALM      29.96F FOG
MOSINEE        NOT AVBL
MARSHFIELD     MOCLDY    53  51  93 CALM      29.96F FOG
WISC RAPIDS    LGT RAIN  55  52  89 S13       29.96F
STEVENS POINT  NOT AVBL
WAUPACA        NOT AVBL
SHAWANO        NOT AVBL
CLINTONVILLE   NOT AVBL
$$

WIZ038-039-048-051-210700-
FOX VALLEY

CITY           SKY/WX    TMP DP  RH WIND       PRES   REMARKS
NWS GREEN BAY  FOG       49  49 100 CALM      29.96F VSB 1
APPLETON       NOT AVBL
OSHKOSH        MOCLDY    49  46  90 CALM      29.95F FOG
FOND DU LAC      N/A     50  46  86 CALM      29.95F
$$

WIZ022-050-052-210700-
EAST CENTRAL WISCONSIN

CITY           SKY/WX    TMP DP  RH WIND       PRES   REMARKS
STURGEON BAY   CLOUDY    48  43  81 NE3       29.99F
MANITOWOC      NOT AVBL
SHEBOYGAN      MOCLDY    45  40  82 S3        29.97F
$$

LMZ563-521-522-541>543-210700-
LAKESHORE

STATION/POSITION TIME  TEMP    WIND        PRES    VSBY  WAVE
                       AIR SEA DIR/SP/G                  HT/PER
                 (UTC) (F)     (DEG/KT/KT) (MB)    (MI)  (FT/S)
SHEBOYGAN LKSHOR 0500   45      CALM  /  6 1016.2F
KEWAUNEE LKSHORE 0500   45      CALM  /  1 1015.9F
NORTHPORT PIER   0500   43      CALM  /  1 1015.9F
SISTER BAY LKSHO 0500             CALM       N/A
MENOMINEE LKSHOR 0500   40     310/  6/  7 1016.0F
$$



USA.gov is the U.S. government's official web portal to all federal, state and local government web resources and services.